Change the Weather History Date:

Sunday, January 20, 2013

  Actual Average Record
Temperature  
Mean Temperature 54 °F -  
Max Temperature 66 °F 61 °F 68 °F (2007)
Min Temperature 42 °F 42 °F 33 °F (2005)
Degree Days  
Heating Degree Days 11    
Growing Degree Days 4 (Base 50)    
Moisture  
Dew Point 52 °F    
Average Humidity 93    
Maximum Humidity 100    
Minimum Humidity 69    
Precipitation  
Precipitation 0.00 in 0.07 in - ()
Sea Level Pressure  
Sea Level Pressure 29.63 in    
Wind  
Wind Speed 4 mph ()    
Max Wind Speed 14 mph    
Max Gust Speed -    
Visibility 6.1 miles    
Events      
Averages and records for this station are not official NWS values.
T = Trace of Precipitation, MM = Missing Value Source: Averaged Metar Reports

Daily Weather History Graph

Daily Weather History Graph

Search for Another Location

Airport or City:

Trip Planner

Search our weather history database for the weather conditions in past years. The results will help you decide how hot, cold, wet, or windy it might be!

Date:

Astronomy

Jan. 20, 2013 Rise Set
Actual Time 7:11 AM CET 5:11 PM CET
Civil Twilight 6:43 AM CET 5:39 PM CET
Nautical Twilight 6:11 AM CET 6:11 PM CET
Astronomical Twilight 5:40 AM CET 6:42 PM CET
Moon 12:01 PM CET (1/20) 1:28 AM CET (1/20)
Length of Visible Light 10h 56m
Length of Day
9h 59m
Waxing Gibbous, 64% of the Moon is Illuminated
Jan 20
Waxing Gibbous
Jan 27
Full
Feb 3
Last Quarter
Feb 10
New
Feb 17
First Quarter

Hourly Weather History & Observations

Time (CET) Temp. Windchill Dew Point Humidity Pressure Visibility Wind Dir Wind Speed Gust Speed Precip Events Conditions
12:55 AM 48.2 °F - 46.4 °F 93% 29.71 in 6.2 mi WNW 3.5 mph - N/A   Scattered Clouds
1:00 AM 47 °F - 46 °F 97% 29.73 in 8 mi WNW 3.5 mph - -   Partly Cloudy
1:55 AM 46.4 °F 45.2 °F 46.4 °F 100% 29.71 in 6.2 mi West 3.5 mph - N/A   Mostly Cloudy
2:55 AM 46.4 °F - 46.4 °F 100% 29.71 in 6.2 mi WSW 1.2 mph - N/A   Mostly Cloudy
3:55 AM 44.6 °F 43.1 °F 42.8 °F 93% 29.71 in 6.2 mi West 3.5 mph - N/A   Partly Cloudy
4:00 AM 45 °F - 44 °F 93% 29.73 in 7 mi West 3.5 mph - -   Scattered Clouds
4:55 AM 42.8 °F - 41.0 °F 93% 29.71 in 6.2 mi WNW 2.3 mph - N/A   Scattered Clouds
5:55 AM 42.8 °F 38.6 °F 42.8 °F 100% 29.71 in 6.2 mi West 6.9 mph - N/A   Scattered Clouds
6:55 AM 42.8 °F - 41.0 °F 93% 29.71 in 6.2 mi SW 1.2 mph - N/A   Mostly Cloudy
7:55 AM 42.8 °F 41.1 °F 41.0 °F 93% 29.71 in 5.0 mi WSW 3.5 mph - N/A   Scattered Clouds
8:55 AM 48.2 °F - 46.4 °F 93% 29.71 in 6.2 mi WNW 2.3 mph - N/A   Scattered Clouds
9:55 AM 53.6 °F - 51.8 °F 94% 29.68 in 6.2 mi NNE 2.3 mph - N/A   Scattered Clouds
10:00 AM 53 °F - 51 °F 92% 29.71 in 6 mi NNE 2.3 mph - -   Scattered Clouds
10:55 AM 55.4 °F - 53.6 °F 94% 29.68 in 6.2 mi SSE 2.3 mph - N/A   Scattered Clouds
11:55 AM 60.8 °F - 57.2 °F 88% 29.65 in 6.2 mi East 5.8 mph - N/A   Scattered Clouds
12:55 PM 64.4 °F - 57.2 °F 77% 29.59 in 6.2 mi East 13.8 mph - N/A   Scattered Clouds
1:00 PM 64 °F - 56 °F 69% 29.61 in 7 mi East 13.8 mph - -   Scattered Clouds
1:55 PM 62.6 °F - 59.0 °F 88% 29.59 in 6.2 mi ENE 12.7 mph - N/A   Scattered Clouds
2:55 PM 64.4 °F - 59.0 °F 83% 29.56 in 6.2 mi ENE 9.2 mph - N/A   Scattered Clouds
3:55 PM 62.6 °F - 60.8 °F 94% 29.56 in 6.2 mi NNE 4.6 mph - N/A   Scattered Clouds
4:00 PM 63 °F - 61 °F 89% 29.57 in 6 mi NNE 4.6 mph - -   Scattered Clouds
4:55 PM 60.8 °F - 59.0 °F 94% 29.56 in 6.2 mi NE 4.6 mph - N/A   Scattered Clouds
5:55 PM 59.0 °F - 57.2 °F 94% 29.56 in 6.2 mi East 6.9 mph - N/A   Scattered Clouds
6:55 PM 57.2 °F - 57.2 °F 100% 29.56 in 5.0 mi East 9.2 mph - N/A   Scattered Clouds
7:00 PM 57 °F - 57 °F 99% 29.57 in 5 mi East 9.2 mph - -   Mist
7:55 PM 57.2 °F - 55.4 °F 94% 29.53 in 5.0 mi East 9.2 mph - N/A   Mostly Cloudy
8:55 PM 57.2 °F - 55.4 °F 94% 29.56 in 6.2 mi ENE 4.6 mph - N/A   Mostly Cloudy
9:55 PM 55.4 °F - 55.4 °F 100% 29.53 in 6.2 mi East 8.1 mph - N/A   Mostly Cloudy
10:00 PM 56 °F - 56 °F 98% 29.55 in 6 mi East 8.1 mph - -   Mostly Cloudy
10:55 PM 55.4 °F - 55.4 °F 100% 29.53 in - East 8.1 mph - N/A   Clear
11:55 PM 57.2 °F - 51.8 °F 82% 29.47 in 6.2 mi ENE 6.9 mph - N/A   Mostly Cloudy